Weather History for Fremont, NE

Change the Weather History Date:

Wednesday, September 18, 2013

  Actual Average Record
Temperature  
Mean Temperature 79 °F -  
Max Temperature 91 °F 78 °F 96 °F (1948)
Min Temperature 67 °F 53 °F 33 °F (1973)
Cooling Degree Days 14    
Growing Degree Days 29 (Base 50)    
Moisture  
Dew Point 68 °F    
Average Humidity 74    
Maximum Humidity 99    
Minimum Humidity 47    
Precipitation  
Precipitation 0.04 in - - ()
Sea Level Pressure  
Sea Level Pressure 29.77 in    
Wind  
Wind Speed 12 mph (SSE)    
Max Wind Speed 21 mph    
Max Gust Speed 28 mph    
Visibility 9 miles    
Events      
Averages and records for this station are not official NWS values.
T = Trace of Precipitation, MM = Missing Value Source: NWS Daily Summary

Daily Weather History Graph

Daily Weather History Graph

Search for Another Location

Airport:

Trip Planner

Search our weather history database for the weather conditions in past years. The results will help you decide how hot, cold, wet, or windy it might be!

Date:

Astronomy

Sep. 18, 2013 Rise Set
Actual Time 7:09 AM CDT 7:29 PM CDT
Civil Twilight 6:42 AM CDT 7:57 PM CDT
Nautical Twilight 6:09 AM CDT 8:29 PM CDT
Astronomical Twilight 5:36 AM CDT 9:03 PM CDT
Moon 6:53 PM CDT (9/18) 6:13 AM CDT (9/18)
Length of Visible Light 13h 15m
Length of Day
12h 19m
Waxing Gibbous, 99% of the Moon is Illuminated
Sep 18
Waxing Gibbous
Sep 19
Full
Sep 26
Last Quarter
Oct 4
New
Oct 11
First Quarter

Hourly Weather History & Observations

Time (CDT) Temp. Heat Index Dew Point Humidity Pressure Visibility Wind Dir Wind Speed Gust Speed Precip Events Conditions
12:15 AM 70.2 °F - 68.4 °F 94% 29.87 in 7.0 mi SSE 12.7 mph 21.9 mph N/A   Scattered Clouds
12:35 AM 70.0 °F - 68.4 °F 95% 29.87 in 7.0 mi SSE 15.0 mph 25.3 mph N/A   Mostly Cloudy
12:55 AM 70.0 °F - 68.4 °F 95% 29.86 in 7.0 mi SSE 15.0 mph 23.0 mph N/A   Overcast
1:15 AM 69.8 °F - 68.2 °F 95% 29.86 in 7.0 mi SSE 15.0 mph 20.7 mph N/A   Mostly Cloudy
1:35 AM 69.8 °F - 68.4 °F 95% 29.86 in 7.0 mi SSE 15.0 mph 23.0 mph N/A   Mostly Cloudy
1:55 AM 69.3 °F - 68.2 °F 96% 29.86 in 7.0 mi SSE 16.1 mph 20.7 mph N/A   Scattered Clouds
2:15 AM 69.1 °F - 68.0 °F 96% 29.86 in 7.0 mi SSE 13.8 mph 21.9 mph N/A   Scattered Clouds
2:35 AM 68.9 °F - 68.0 °F 97% 29.85 in 7.0 mi SSE 13.8 mph 18.4 mph N/A   Scattered Clouds
2:55 AM 68.9 °F - 68.0 °F 97% 29.84 in 7.0 mi SSE 12.7 mph 19.6 mph N/A   Clear
3:15 AM 68.9 °F - 67.6 °F 96% 29.84 in 7.0 mi SSE 13.8 mph 19.6 mph N/A   Clear
3:35 AM 68.7 °F - 67.6 °F 96% 29.83 in 7.0 mi SSE 10.4 mph 19.6 mph N/A   Clear
3:55 AM 68.7 °F - 67.5 °F 96% 29.82 in 7.0 mi SSE 11.5 mph - N/A   Scattered Clouds
4:15 AM 68.5 °F - 67.5 °F 96% 29.81 in 7.0 mi SSE 10.4 mph 18.4 mph N/A   Scattered Clouds
4:35 AM 68.4 °F - 67.3 °F 96% 29.81 in 7.0 mi SSE 9.2 mph - N/A   Clear
4:55 AM 68.2 °F - 67.3 °F 97% 29.81 in 7.0 mi SSE 6.9 mph - N/A   Clear
5:15 AM 68.0 °F - 67.3 °F 98% 29.81 in 7.0 mi SE 6.9 mph - N/A   Clear
5:35 AM 67.6 °F - 67.1 °F 98% 29.81 in 7.0 mi ESE 5.8 mph - N/A   Clear
5:55 AM 67.3 °F - 67.1 °F 99% 29.81 in 7.0 mi SE 5.8 mph - N/A   Clear
6:15 AM 67.3 °F - 67.1 °F 99% 29.81 in 7.0 mi SE 6.9 mph - N/A   Clear
6:35 AM 67.6 °F - 67.1 °F 98% 29.81 in 7.0 mi SE 6.9 mph - N/A   Mostly Cloudy
6:55 AM 67.6 °F - 67.1 °F 98% 29.82 in 7.0 mi SE 5.8 mph - N/A   Mostly Cloudy
7:15 AM 67.6 °F - 67.1 °F 98% 29.81 in 7.0 mi SE 5.8 mph - N/A   Scattered Clouds
7:35 AM 67.6 °F - 67.1 °F 98% 29.81 in 5.0 mi SE 5.8 mph - N/A   Clear
7:55 AM 68.2 °F - 67.3 °F 97% 29.82 in 7.0 mi SE 5.8 mph - N/A   Clear
8:15 AM 69.3 °F - 67.8 °F 95% 29.82 in 7.0 mi SE 5.8 mph - N/A   Clear
8:35 AM 70.7 °F - 68.2 °F 92% 29.82 in 10.0 mi SE 6.9 mph - N/A   Clear
8:55 AM 72.0 °F - 68.9 °F 90% 29.81 in 10.0 mi SSE 9.2 mph 16.1 mph N/A   Clear
9:15 AM 73.4 °F - 69.3 °F 87% 29.81 in 10.0 mi SSE 12.7 mph 18.4 mph N/A   Clear
9:35 AM 74.3 °F - 69.4 °F 85% 29.81 in 10.0 mi SSE 11.5 mph 19.6 mph N/A   Clear
9:55 AM 76.1 °F - 69.3 °F 79% 29.81 in 10.0 mi South 10.4 mph - N/A   Clear
10:15 AM 77.2 °F - 69.4 °F 77% 29.81 in 10.0 mi South 16.1 mph 21.9 mph N/A   Clear
10:35 AM 78.6 °F - 69.4 °F 73% 29.80 in 10.0 mi South 20.7 mph 25.3 mph N/A   Clear
10:55 AM 80.1 °F 83.0 °F 69.4 °F 70% 29.80 in 10.0 mi South 15.0 mph 19.6 mph N/A   Clear
11:15 AM 82.4 °F 86.5 °F 70.3 °F 67% 29.79 in 10.0 mi South 10.4 mph 16.1 mph N/A   Clear
11:35 AM 82.4 °F 85.8 °F 69.3 °F 64% 29.79 in 10.0 mi South 15.0 mph - N/A   Clear
11:55 AM 83.3 °F 87.4 °F 69.8 °F 64% 29.77 in 10.0 mi South 12.7 mph - N/A   Clear
12:15 PM 84.9 °F 89.1 °F 69.8 °F 60% 29.77 in 10.0 mi South 12.7 mph - N/A   Clear
12:35 PM 85.3 °F 89.8 °F 69.8 °F 60% 29.76 in 10.0 mi South 17.3 mph 23.0 mph N/A   Clear
12:55 PM 86.2 °F 90.7 °F 69.8 °F 58% 29.75 in 10.0 mi SSE 16.1 mph 20.7 mph N/A   Clear
1:15 PM 87.4 °F 91.9 °F 69.4 °F 55% 29.74 in 10.0 mi South 15.0 mph 23.0 mph N/A   Clear
1:35 PM 87.8 °F 92.6 °F 69.6 °F 55% 29.74 in 10.0 mi SSE 17.3 mph 21.9 mph N/A   Clear
1:55 PM 88.2 °F 92.5 °F 69.1 °F 53% 29.72 in 10.0 mi South 15.0 mph 27.6 mph N/A   Clear
2:15 PM 89.4 °F 94.4 °F 69.4 °F 52% 29.72 in 10.0 mi SSE 16.1 mph 20.7 mph N/A   Clear
2:35 PM 89.6 °F 93.9 °F 68.9 °F 50% 29.71 in 10.0 mi SSE 19.6 mph 25.3 mph N/A   Scattered Clouds
2:55 PM 90.1 °F 94.4 °F 68.9 °F 49% 29.71 in 10.0 mi South 19.6 mph - N/A   Clear
3:15 PM 90.1 °F 94.4 °F 68.4 °F 49% 29.71 in 10.0 mi South 18.4 mph 26.5 mph N/A   Scattered Clouds
3:35 PM 89.4 °F 93.5 °F 68.7 °F 50% 29.70 in 10.0 mi South 16.1 mph 23.0 mph N/A   Scattered Clouds
3:55 PM 90.5 °F 94.6 °F 68.4 °F 48% 29.70 in 10.0 mi South 16.1 mph 25.3 mph N/A   Scattered Clouds
4:15 PM 90.7 °F 95.0 °F 68.7 °F 48% 29.70 in 10.0 mi South 13.8 mph 18.4 mph N/A   Scattered Clouds
4:35 PM 88.9 °F 93.0 °F 68.5 °F 51% 29.70 in 10.0 mi South 12.7 mph 23.0 mph 0.04 in   Scattered Clouds
4:55 PM 89.8 °F 93.8 °F 68.5 °F 49% 29.69 in 10.0 mi South 15.0 mph 20.7 mph 0.04 in   Scattered Clouds
5:15 PM 91.0 °F 95.2 °F 68.5 °F 47% 29.69 in 10.0 mi South 16.1 mph 19.6 mph N/A   Scattered Clouds
5:35 PM 88.9 °F 93.0 °F 68.5 °F 51% 29.70 in 10.0 mi South 13.8 mph 18.4 mph N/A   Scattered Clouds
5:55 PM 89.4 °F 93.5 °F 68.5 °F 50% 29.69 in 10.0 mi South 10.4 mph 17.3 mph N/A   Scattered Clouds
6:15 PM 88.9 °F 93.0 °F 68.9 °F 51% 29.69 in 10.0 mi South 12.7 mph 18.4 mph N/A   Scattered Clouds
6:35 PM 88.9 °F 93.0 °F 68.9 °F 51% 29.69 in 10.0 mi SSE 9.2 mph - N/A   Scattered Clouds
6:55 PM 87.8 °F 91.8 °F 68.9 °F 53% 29.69 in 10.0 mi South 8.1 mph - N/A   Scattered Clouds
7:15 PM 86.4 °F 90.4 °F 68.9 °F 56% 29.69 in 10.0 mi SSE 8.1 mph - N/A   Clear
7:35 PM 85.1 °F 88.8 °F 68.9 °F 58% 29.69 in 10.0 mi SSE 8.1 mph - N/A   Clear
7:55 PM 84.0 °F 87.6 °F 68.9 °F 60% 29.69 in 10.0 mi SE 8.1 mph - N/A   Clear
8:15 PM 82.6 °F 86.1 °F 69.1 °F 64% 29.70 in 10.0 mi SE 8.1 mph - N/A   Clear
8:35 PM 82.4 °F 85.8 °F 69.1 °F 64% 29.70 in 10.0 mi SSE 8.1 mph - N/A   Clear
8:55 PM 81.9 °F 85.2 °F 68.9 °F 65% 29.70 in 10.0 mi SSE 10.4 mph - N/A   Scattered Clouds
9:15 PM 81.7 °F 84.7 °F 68.5 °F 64% 29.70 in 10.0 mi SE 10.4 mph - N/A   Scattered Clouds
9:35 PM 81.0 °F 83.8 °F 68.4 °F 65% 29.70 in 10.0 mi SSE 12.7 mph - N/A   Clear
9:55 PM 80.8 °F 83.6 °F 68.4 °F 66% 29.70 in 10.0 mi SSE 12.7 mph - N/A   Clear
10:15 PM 81.5 °F 84.2 °F 68.0 °F 63% 29.71 in 10.0 mi SSE 15.0 mph 21.9 mph N/A   Clear
10:35 PM 81.1 °F 83.7 °F 67.6 °F 63% 29.71 in 10.0 mi SSE 13.8 mph 23.0 mph N/A   Clear
10:55 PM 80.6 °F 83.2 °F 67.6 °F 65% 29.71 in 10.0 mi SSE 12.7 mph 20.7 mph N/A   Clear
11:15 PM 80.1 °F 82.4 °F 67.3 °F 65% 29.72 in 10.0 mi SSE 15.0 mph 21.9 mph N/A   Clear
11:35 PM 79.7 °F - 66.7 °F 64% 29.72 in 10.0 mi South 13.8 mph 19.6 mph N/A   Clear
11:55 PM 79.2 °F - 66.4 °F 65% 29.72 in 10.0 mi South 12.7 mph 19.6 mph N/A   Clear